SCP
-0 0 0 0 0 0 0 0 -0 -0 -0 -0 -0 -0 -0 -0 -0 -0 -0 -0 -0 -0 -0 -0 -0 -0 -0 -0 -0 -0 -0 -0 -0 -0 -0 -0 -0 -0 -0 -0 -0 0 -0
-0 -0 0 -0 -0 -0 -0 -0 -0 -0 -0 -0 -0 -0 -0 -0 -0 -0 -0 -0 -0 -0 -0 -0 -0 -0 -0 -0 -0 -0 -0 -0 -0 -0 -0 -0 -0 -0 -0 -0 -0 -0 -0
-0 -0 -0 -0 -0 -0 -0 -0 -0 -0 -0 -0 -0 -0 -0 -0 -0 -0 -0 -0 -0 -0 -0 -0 -0 -0 -0 -0 -0 -0 -0 -0 -0 -0 -0 0 -0 -0 -0 -0 -0 -0 -0
0 0 0 -0 -0 -0 -0 -0 0 -0 -0 -0 -0 -0 -0 -0 -0 -0 -0 -0 -0 -0 -0 -0 -0 -0 -0 -0 -0 -0 -0 -0 -0 -0 0 0 0 -0 -0 -0 -0 -0 -0
0 0 0 -0 -0 -0 0 -0 -0 -0 -0 -0 -0 -0 -0 -0 -0 -0 -0 -0 -0 -0 -0 -0 -0 -0 -0 -0 -0 -0 -0 -0 -0 -0 0 0 0 0 -0 -0 -0 -0 -0
-0 -0 0 0 -0 0 0 0 -0 0 -0 -0 -0 -0 -0 -0 -0 -0 -0 -0 -0 -0 -0 -0 -0 -0 -0 -0 -0 -0 -0 -0 -0 0 0 0 0 -0 -0 -0 0 0 0
-0 -0 0 -0 -0 -0 0 0 -0 -0 -0 -0 -0 -0 -0 -0 -0 -0 -0 -0 -0 -0 -0 -0 -0 -0 -0 -0 -0 -0 -0 -0 0 0 0 0 0 0 0 0 0 0 0
0 0 0 -0 -0 -0 0 -0 -0 -0 -0 0 -0 -0 -0 -0 -0 -0 -0 -0 -0 -0 -0 -0 -0 -0 -0 -0 -0 -0 -0 0 0 0 0 0 0 0 0 0 0 0 0
0 0 0 0 0 0 0 -0 -0 -0 -0 -0 0 -0 -0 -0 -0 -0 -0 -0 -0 -0 -0 -0 -0 -0 -0 -0 -0 0 0 0 0 0 0 0 0 0 0 0 0 0 0
0 0 0 0 0 0 0 0 -0 0 0 0 -0 -0 -0 -0 -0 -0 -0 -0 -0 -0 -0 -0 -0 -0 -0 -0 -0 -0 0 0 0 0 0 0 0 0 0 0 0 0 0
0 0 0 0 0 0 0 0 0 0 0 -0 -0 -0 -0 -0 -0 -0 -0 -0 -0 -0 -0 -0 -0 -0 -0 -0 0 0 0 0 0 0 0 0 0 0 0 0 0 0 0
0 0 0 0 0 0 0 0 0 0 0 0 -0 -0 -0 -0 -0 -0 -0 -0 -0 -0 0 0 0 -0 0 0 0 0 0 0 0 0 0 0 0 0 0 0 0 0 0
0 0 0 0 0 0 0 0 0 0 0 0 0 -0 -0 0 0 0 0 0 0 0 0 0 0 0 0 0 0 0 0 0 0 0 0 0 0 0 0 0 0 0 0
0 0 0 -0 0 0 0 0 0 0 0 0 -0 -0 -0 -0 0 0 0 0 0 0 0 0 0 0 0 0 0 0 0 0 0 0 0 0 0 0 0 0 0 0 0
0 0 0 0 -0 -0 -0 -0 -0 -0 -0 -0 -0 -0 -0 -0 0 0 0 0 0 0 0 0 0 0 0 0 0 0 0 0 0 0 0 0 0 0 0 0 0 0 0
0 0 0 0 0 -0 -0 -0 -0 -0 -0 -0 -0 0 -0 0 0 0 0 0 0 0 0 0 0 0 0 0 0 0 0 0 0 0 0 0 0 0 0 0 0 0 0
0 0 0 0 0 -0 -0 0 0 0 0 0 0 0 0 0 0 0 0 0 0 0 0 0 0 0 0 0 0 0 0 0 0 0 0 0 0 0 0 0 0 0 0
0 0 0 0 0 0 0 0 0 0 0 0 0 0 0 0 0 0 0 0 0 0 0 0 0 0 0 0 0 0 0 0 0 0 0 0 0 0 0 0 0 0 0
0 0 0 0 0 0 0 0 0 0 0 0 0 0 0 0 0 0 0 0 0 0 0 0 0 0 0 0 0 0 0 0 0 0 0 0 0 0 0 0 0 0 0
0 0 0 0 0 0 0 0 0 0 0 0 0 0 0 0 0 0 0 0 0 0 0 0 0 0 0 0 0 0 0 0 0 0 0 0 0 0 0 0 0 0 0
0 0 0 0 0 0 0 0 0 0 0 0 0 0 0 0 0 0 0 0 0 0 0 0 0 0 0 0 0 0 0 0 0 0 0 0 0 0 0 0 0 0 0
0 0 0 0 0 0 0 0 0 0 0 0 0 0 0 0 0 0 0 0 0 0 0 0 0 0 0 0 0 0 0 0 0 0 0 0 0 0 0 0 0 0 0
0 0 0 0 0 0 0 0 0 0 0 0 0 0 0 0 0 0 0 0 0 0 0 0 0 0 0 0 0 0 0 0 0 0 0 0 0 0 0 0 0 0 0
0 0 0 0 0 0 0 0 0 0 0 0 0 0 0 0 0 0 0 0 0 0 0 0 0 0 0 0 0 0 0 0 0 0 0 0 0 0 0 0 0 0 0
0 0 0 0 0 0 0 0 0 0 0 0 0 0 0 0 0 0 0 0 0 0 0 0 0 0 0 0 0 0 0 0 0 0 0 0 0 0 0 0 0 0 0
0 0 0 0 0 0 0 0 0 0 0 0 0 0 0 0 0 0 0 0 0 0 0 0 0 0 0 0 0 0 0 0 0 0 0 0 0 0 0 0 0 0 0
Wind_Speed_500mb
31 24 23 19 17 13 15 13 13 19 20 18 16 16 18 18 18 18 17 17 16 21 30 31 32 32 30 28 28 27 26 24 23 22 27 27 27 25 22 23 19 18 15
33 27 24 20 15 16 15 17 20 19 17 17 17 18 20 19 17 17 16 17 20 25 30 28 27 24 21 19 18 18 16 15 15 14 14 15 21 18 15 15 19 17 11
30 28 24 20 21 20 19 19 18 19 20 23 23 25 23 19 17 20 21 25 27 29 26 25 24 24 24 21 19 20 24 21 17 15 15 18 28 28 27 23 19 12 8
31 31 25 23 22 20 22 20 19 20 24 29 26 28 31 29 30 31 31 34 35 33 30 28 26 29 28 24 26 27 25 22 23 21 20 23 22 24 21 19 19 21 28
29 27 25 24 24 23 22 20 20 24 26 30 23 23 29 31 30 32 32 32 32 32 34 29 27 29 27 21 21 23 26 24 24 24 24 23 25 26 22 14 14 17 21
31 25 23 22 25 25 22 21 20 21 24 27 25 23 25 25 23 26 26 25 27 29 26 24 22 18 17 22 23 24 25 24 20 18 20 23 27 21 16 16 13 9 11
33 26 25 24 28 26 22 18 19 19 20 19 18 19 23 22 20 23 24 24 23 21 19 18 18 14 14 17 20 21 24 25 26 20 20 22 24 17 10 13 15 11 11
32 29 26 24 26 26 23 18 18 17 18 18 17 17 19 20 19 21 24 23 21 19 19 20 20 17 15 15 17 20 25 25 23 17 19 22 18 13 12 18 16 13 15
32 31 27 24 25 24 22 19 17 18 19 19 17 15 15 19 21 20 23 20 19 20 20 18 17 12 11 12 14 18 22 23 22 17 18 18 13 13 17 20 19 16 16
32 31 29 25 25 24 21 19 16 17 17 17 15 15 15 15 17 20 20 18 17 17 17 18 16 11 4 5 10 15 19 20 21 19 19 19 16 17 17 21 22 21 20
37 35 31 28 26 25 23 20 18 16 16 14 13 14 13 12 12 13 15 15 14 13 14 12 10 7 2 5 8 12 16 18 21 22 22 22 21 21 22 22 23 23 22
44 42 38 34 30 27 25 22 19 17 15 12 12 11 10 9 8 8 9 10 10 7 8 7 6 3 2 3 6 10 11 14 17 19 21 23 25 25 24 24 23 22 22
43 44 41 38 34 30 28 25 23 20 17 14 12 10 8 6 5 5 4 5 5 4 4 4 3 4 5 5 7 8 9 12 14 16 18 20 20 21 22 23 24 24 23
47 44 42 39 37 34 31 27 25 22 19 15 12 9 7 4 3 2 2 3 3 3 3 2 3 6 6 6 6 8 10 11 12 14 17 19 21 23 23 23 24 25 25
49 45 44 43 40 37 35 32 30 26 22 19 16 13 10 7 5 3 1 1 0 1 2 2 5 7 6 5 6 7 10 10 11 16 19 21 23 24 26 29 30 30 30
49 47 43 44 41 40 37 34 32 29 26 25 22 18 16 14 11 8 6 5 4 5 5 5 6 7 6 6 4 5 7 10 15 20 24 27 29 32 34 36 37 39 40
52 48 46 43 40 38 34 36 35 33 32 29 27 25 23 20 17 15 13 11 10 10 10 10 10 10 9 8 8 10 13 17 22 26 30 32 35 38 40 41 43 44 46
54 54 48 46 43 41 39 36 34 35 35 31 28 29 28 26 24 22 20 17 17 16 16 16 16 16 15 16 16 19 21 26 30 35 37 39 43 44 45 46 49 50 51
55 54 54 50 48 43 41 42 43 39 35 35 30 29 29 28 29 27 25 22 22 21 21 22 23 24 24 25 28 31 33 37 40 43 46 47 47 47 48 49 49 49 50
55 54 53 49 48 50 48 46 51 43 47 42 40 38 34 31 29 28 29 26 26 26 24 25 26 29 32 33 36 38 38 39 46 49 49 47 46 44 43 50 50 52 52
56 57 58 64 56 59 60 57 57 58 51 50 45 41 39 37 35 32 30 26 25 28 26 28 30 31 33 37 45 43 44 47 52 46 44 40 46 53 42 48 49 48 48
60 59 63 61 61 62 66 57 55 50 46 49 51 48 47 44 42 41 38 34 31 31 31 32 34 38 40 41 47 53 46 56 46 45 48 49 49 50 45 55 46 43 48
71 71 66 61 57 58 60 56 53 47 46 40 46 49 49 49 45 45 42 39 38 39 38 38 38 46 40 42 44 44 28 27 58 65 60 58 59 55 56 56 52 52 47
65 66 72 68 62 56 58 56 53 51 47 40 38 36 42 42 43 42 42 40 41 41 45 42 39 42 41 50 47 45 46 54 61 52 61 67 59 64 58 58 60 53 55
63 63 66 69 70 65 61 62 57 57 46 34 31 23 24 29 35 38 41 40 36 37 37 35 35 39 38 41 42 42 43 53 58 53 63 59 67 67 68 71 72 66 60
64 63 62 66 68 69 69 69 67 65 52 42 37 34 30 29 30 35 37 36 37 33 29 28 27 30 30 32 31 37 37 42 41 43 59 72 70 76 73 71 69 68 61
Wind_Direction_500mb
162 155 143 133 127 108 109 113 114 104 111 107 121 140 147 137 125 118 120 112 104 92 94 99 99 98 94 91 86 82 79 77 76 73 80 79 78 82 86 81 68 58 63
158 155 147 145 137 120 102 102 103 101 104 106 108 121 140 146 144 131 134 129 101 101 97 103 105 101 92 82 75 72 68 66 68 70 62 75 74 72 74 83 83 70 38
156 150 149 140 136 123 105 95 92 102 114 103 95 107 125 141 148 145 120 116 101 100 103 106 100 90 84 79 76 71 66 63 64 63 69 79 74 69 66 58 54 64 32
154 149 146 138 134 121 107 96 99 108 107 105 95 97 102 106 107 102 99 99 99 98 101 101 99 94 86 78 74 69 58 59 57 52 65 65 63 74 73 73 70 66 79
155 152 150 147 140 130 122 104 93 98 100 103 113 96 101 108 102 102 98 98 101 99 103 106 104 96 92 79 75 70 63 55 48 52 44 49 44 50 56 62 63 60 74
159 156 153 149 145 138 127 104 100 101 110 117 116 99 96 100 99 98 104 101 100 105 104 112 111 105 100 85 77 63 53 49 37 35 44 58 60 62 38 41 53 46 71
163 156 158 157 149 142 138 120 108 105 111 116 110 93 87 91 96 93 100 101 99 100 109 114 123 120 106 89 79 68 55 43 41 52 56 57 50 66 49 31 35 32 36
166 158 158 155 154 152 147 134 123 115 110 113 109 93 86 89 92 94 98 96 96 100 107 111 126 123 102 76 71 54 43 39 34 53 49 50 64 49 41 31 35 33 31
170 160 155 159 162 163 159 151 135 116 108 102 98 95 87 77 80 87 94 88 89 89 91 97 115 108 91 65 56 37 30 31 33 51 39 34 59 43 35 36 43 35 31
174 169 163 165 168 172 163 157 141 124 112 107 106 101 91 85 83 83 79 80 87 89 97 107 117 125 96 50 31 23 25 33 46 42 38 39 36 30 35 36 34 30 26
183 180 176 173 176 175 173 165 156 143 132 122 115 109 105 98 93 92 84 84 99 101 106 109 113 119 99 335 8 19 32 39 49 47 45 44 36 35 32 32 30 28 27
188 187 183 181 181 181 180 176 168 162 154 143 126 114 109 105 100 92 84 77 82 99 111 114 111 97 19 345 348 9 42 49 56 54 47 43 37 34 32 28 25 24 24
190 193 191 189 187 187 184 183 182 181 177 168 155 142 131 115 97 87 92 80 71 92 100 96 83 27 355 345 336 3 31 34 37 38 38 31 27 26 24 21 18 15 12
196 197 199 198 196 192 192 193 193 194 194 190 187 179 169 156 134 99 79 82 78 55 45 42 8 354 347 333 338 348 6 18 24 21 13 8 7 6 2 359 356 353 352
204 201 205 206 207 204 202 201 202 203 205 209 210 209 208 208 213 210 218 250 205 316 347 345 330 332 336 333 341 348 354 355 353 349 348 346 345 344 343 340 338 336 333
207 206 210 214 213 214 214 212 211 213 213 220 222 222 225 230 233 239 251 266 277 282 292 297 298 313 311 316 323 333 331 331 328 327 328 330 331 331 329 328 327 325 322
213 213 216 218 217 218 218 221 219 219 221 226 232 234 234 235 240 245 250 259 266 268 270 277 281 297 294 299 290 292 300 305 311 313 315 317 318 319 319 317 315 313 311
220 221 223 227 227 230 231 235 233 227 225 231 229 235 240 243 243 244 249 253 257 265 269 272 273 276 280 282 284 289 294 299 302 303 305 311 313 311 309 309 309 306 304
224 224 226 230 234 235 236 244 245 248 237 234 235 240 246 248 252 254 252 252 256 260 267 273 274 274 277 280 284 288 293 295 297 297 300 307 309 308 309 308 303 302 300
224 228 230 230 233 236 238 243 244 244 234 236 240 240 243 248 252 261 252 253 258 261 266 273 281 281 283 288 289 291 296 299 299 298 304 303 307 309 308 310 306 302 304
222 225 227 231 232 235 233 236 239 236 236 237 238 242 245 249 252 256 259 269 277 279 282 280 280 284 288 291 291 296 295 294 295 303 303 309 312 313 315 312 308 300 305
223 225 229 232 232 234 235 240 241 244 252 242 241 245 249 250 253 256 258 262 267 272 273 279 284 287 292 290 291 297 301 301 312 312 306 316 314 314 313 319 308 308 301
229 228 229 230 231 230 234 238 239 241 247 242 240 239 244 250 252 254 260 263 266 268 272 279 283 282 278 287 287 287 293 293 305 309 314 310 313 309 314 313 310 315 301
229 226 227 230 231 230 233 237 238 240 243 250 247 245 246 246 251 255 258 261 265 268 270 275 275 278 285 285 284 296 294 294 298 295 306 306 310 308 315 313 308 309 309
226 226 223 225 229 229 232 236 239 240 244 246 242 253 252 249 245 249 252 255 261 268 270 275 276 278 284 284 289 297 298 297 297 303 307 313 307 306 313 308 312 308 311
221 220 223 224 228 231 232 235 236 240 239 235 245 249 254 257 251 245 246 248 252 255 263 266 275 275 275 278 289 295 307 313 318 315 312 313 313 312 308 313 314 318 317
Wind_Speed_850mb
31 24 23 19 17 13 15 13 13 19 20 18 16 16 18 18 18 18 17 17 16 21 30 31 32 32 30 28 28 27 26 24 23 22 27 27 27 25 22 23 19 18 15
33 27 24 20 15 16 15 17 20 19 17 17 17 18 20 19 17 17 16 17 20 25 30 28 27 24 21 19 18 18 16 15 15 14 14 15 21 18 15 15 19 17 11
30 28 24 20 21 20 19 19 18 19 20 23 23 25 23 19 17 20 21 25 27 29 26 25 24 24 24 21 19 20 24 21 17 15 15 18 28 28 27 23 19 12 8
31 31 25 23 22 20 22 20 19 20 24 29 26 28 31 29 30 31 31 34 35 33 30 28 26 29 28 24 26 27 25 22 23 21 20 23 22 24 21 19 19 21 28
29 27 25 24 24 23 22 20 20 24 26 30 23 23 29 31 30 32 32 32 32 32 34 29 27 29 27 21 21 23 26 24 24 24 24 23 25 26 22 14 14 17 21
31 25 23 22 25 25 22 21 20 21 24 27 25 23 25 25 23 26 26 25 27 29 26 24 22 18 17 22 23 24 25 24 20 18 20 23 27 21 16 16 13 9 11
33 26 25 24 28 26 22 18 19 19 20 19 18 19 23 22 20 23 24 24 23 21 19 18 18 14 14 17 20 21 24 25 26 20 20 22 24 17 10 13 15 11 11
32 29 26 24 26 26 23 18 18 17 18 18 17 17 19 20 19 21 24 23 21 19 19 20 20 17 15 15 17 20 25 25 23 17 19 22 18 13 12 18 16 13 15
32 31 27 24 25 24 22 19 17 18 19 19 17 15 15 19 21 20 23 20 19 20 20 18 17 12 11 12 14 18 22 23 22 17 18 18 13 13 17 20 19 16 16
32 31 29 25 25 24 21 19 16 17 17 17 15 15 15 15 17 20 20 18 17 17 17 18 16 11 4 5 10 15 19 20 21 19 19 19 16 17 17 21 22 21 20
37 35 31 28 26 25 23 20 18 16 16 14 13 14 13 12 12 13 15 15 14 13 14 12 10 7 2 5 8 12 16 18 21 22 22 22 21 21 22 22 23 23 22
44 42 38 34 30 27 25 22 19 17 15 12 12 11 10 9 8 8 9 10 10 7 8 7 6 3 2 3 6 10 11 14 17 19 21 23 25 25 24 24 23 22 22
43 44 41 38 34 30 28 25 23 20 17 14 12 10 8 6 5 5 4 5 5 4 4 4 3 4 5 5 7 8 9 12 14 16 18 20 20 21 22 23 24 24 23
47 44 42 39 37 34 31 27 25 22 19 15 12 9 7 4 3 2 2 3 3 3 3 2 3 6 6 6 6 8 10 11 12 14 17 19 21 23 23 23 24 25 25
49 45 44 43 40 37 35 32 30 26 22 19 16 13 10 7 5 3 1 1 0 1 2 2 5 7 6 5 6 7 10 10 11 16 19 21 23 24 26 29 30 30 30
49 47 43 44 41 40 37 34 32 29 26 25 22 18 16 14 11 8 6 5 4 5 5 5 6 7 6 6 4 5 7 10 15 20 24 27 29 32 34 36 37 39 40
52 48 46 43 40 38 34 36 35 33 32 29 27 25 23 20 17 15 13 11 10 10 10 10 10 10 9 8 8 10 13 17 22 26 30 32 35 38 40 41 43 44 46
54 54 48 46 43 41 39 36 34 35 35 31 28 29 28 26 24 22 20 17 17 16 16 16 16 16 15 16 16 19 21 26 30 35 37 39 43 44 45 46 49 50 51
55 54 54 50 48 43 41 42 43 39 35 35 30 29 29 28 29 27 25 22 22 21 21 22 23 24 24 25 28 31 33 37 40 43 46 47 47 47 48 49 49 49 50
55 54 53 49 48 50 48 46 51 43 47 42 40 38 34 31 29 28 29 26 26 26 24 25 26 29 32 33 36 38 38 39 46 49 49 47 46 44 43 50 50 52 52
56 57 58 64 56 59 60 57 57 58 51 50 45 41 39 37 35 32 30 26 25 28 26 28 30 31 33 37 45 43 44 47 52 46 44 40 46 53 42 48 49 48 48
60 59 63 61 61 62 66 57 55 50 46 49 51 48 47 44 42 41 38 34 31 31 31 32 34 38 40 41 47 53 46 56 46 45 48 49 49 50 45 55 46 43 48
71 71 66 61 57 58 60 56 53 47 46 40 46 49 49 49 45 45 42 39 38 39 38 38 38 46 40 42 44 44 28 27 58 65 60 58 59 55 56 56 52 52 47
65 66 72 68 62 56 58 56 53 51 47 40 38 36 42 42 43 42 42 40 41 41 45 42 39 42 41 50 47 45 46 54 61 52 61 67 59 64 58 58 60 53 55
63 63 66 69 70 65 61 62 57 57 46 34 31 23 24 29 35 38 41 40 36 37 37 35 35 39 38 41 42 42 43 53 58 53 63 59 67 67 68 71 72 66 60
64 63 62 66 68 69 69 69 67 65 52 42 37 34 30 29 30 35 37 36 37 33 29 28 27 30 30 32 31 37 37 42 41 43 59 72 70 76 73 71 69 68 61
Wind_Direction_850mb
162 155 143 133 127 108 109 113 114 104 111 107 121 140 147 137 125 118 120 112 104 92 94 99 99 98 94 91 86 82 79 77 76 73 80 79 78 82 86 81 68 58 63
158 155 147 145 137 120 102 102 103 101 104 106 108 121 140 146 144 131 134 129 101 101 97 103 105 101 92 82 75 72 68 66 68 70 62 75 74 72 74 83 83 70 38
156 150 149 140 136 123 105 95 92 102 114 103 95 107 125 141 148 145 120 116 101 100 103 106 100 90 84 79 76 71 66 63 64 63 69 79 74 69 66 58 54 64 32
154 149 146 138 134 121 107 96 99 108 107 105 95 97 102 106 107 102 99 99 99 98 101 101 99 94 86 78 74 69 58 59 57 52 65 65 63 74 73 73 70 66 79
155 152 150 147 140 130 122 104 93 98 100 103 113 96 101 108 102 102 98 98 101 99 103 106 104 96 92 79 75 70 63 55 48 52 44 49 44 50 56 62 63 60 74
159 156 153 149 145 138 127 104 100 101 110 117 116 99 96 100 99 98 104 101 100 105 104 112 111 105 100 85 77 63 53 49 37 35 44 58 60 62 38 41 53 46 71
163 156 158 157 149 142 138 120 108 105 111 116 110 93 87 91 96 93 100 101 99 100 109 114 123 120 106 89 79 68 55 43 41 52 56 57 50 66 49 31 35 32 36
166 158 158 155 154 152 147 134 123 115 110 113 109 93 86 89 92 94 98 96 96 100 107 111 126 123 102 76 71 54 43 39 34 53 49 50 64 49 41 31 35 33 31
170 160 155 159 162 163 159 151 135 116 108 102 98 95 87 77 80 87 94 88 89 89 91 97 115 108 91 65 56 37 30 31 33 51 39 34 59 43 35 36 43 35 31
174 169 163 165 168 172 163 157 141 124 112 107 106 101 91 85 83 83 79 80 87 89 97 107 117 125 96 50 31 23 25 33 46 42 38 39 36 30 35 36 34 30 26
183 180 176 173 176 175 173 165 156 143 132 122 115 109 105 98 93 92 84 84 99 101 106 109 113 119 99 335 8 19 32 39 49 47 45 44 36 35 32 32 30 28 27
188 187 183 181 181 181 180 176 168 162 154 143 126 114 109 105 100 92 84 77 82 99 111 114 111 97 19 345 348 9 42 49 56 54 47 43 37 34 32 28 25 24 24
190 193 191 189 187 187 184 183 182 181 177 168 155 142 131 115 97 87 92 80 71 92 100 96 83 27 355 345 336 3 31 34 37 38 38 31 27 26 24 21 18 15 12
196 197 199 198 196 192 192 193 193 194 194 190 187 179 169 156 134 99 79 82 78 55 45 42 8 354 347 333 338 348 6 18 24 21 13 8 7 6 2 359 356 353 352
204 201 205 206 207 204 202 201 202 203 205 209 210 209 208 208 213 210 218 250 205 316 347 345 330 332 336 333 341 348 354 355 353 349 348 346 345 344 343 340 338 336 333
207 206 210 214 213 214 214 212 211 213 213 220 222 222 225 230 233 239 251 266 277 282 292 297 298 313 311 316 323 333 331 331 328 327 328 330 331 331 329 328 327 325 322
213 213 216 218 217 218 218 221 219 219 221 226 232 234 234 235 240 245 250 259 266 268 270 277 281 297 294 299 290 292 300 305 311 313 315 317 318 319 319 317 315 313 311
220 221 223 227 227 230 231 235 233 227 225 231 229 235 240 243 243 244 249 253 257 265 269 272 273 276 280 282 284 289 294 299 302 303 305 311 313 311 309 309 309 306 304
224 224 226 230 234 235 236 244 245 248 237 234 235 240 246 248 252 254 252 252 256 260 267 273 274 274 277 280 284 288 293 295 297 297 300 307 309 308 309 308 303 302 300
224 228 230 230 233 236 238 243 244 244 234 236 240 240 243 248 252 261 252 253 258 261 266 273 281 281 283 288 289 291 296 299 299 298 304 303 307 309 308 310 306 302 304
222 225 227 231 232 235 233 236 239 236 236 237 238 242 245 249 252 256 259 269 277 279 282 280 280 284 288 291 291 296 295 294 295 303 303 309 312 313 315 312 308 300 305
223 225 229 232 232 234 235 240 241 244 252 242 241 245 249 250 253 256 258 262 267 272 273 279 284 287 292 290 291 297 301 301 312 312 306 316 314 314 313 319 308 308 301
229 228 229 230 231 230 234 238 239 241 247 242 240 239 244 250 252 254 260 263 266 268 272 279 283 282 278 287 287 287 293 293 305 309 314 310 313 309 314 313 310 315 301
229 226 227 230 231 230 233 237 238 240 243 250 247 245 246 246 251 255 258 261 265 268 270 275 275 278 285 285 284 296 294 294 298 295 306 306 310 308 315 313 308 309 309
226 226 223 225 229 229 232 236 239 240 244 246 242 253 252 249 245 249 252 255 261 268 270 275 276 278 284 284 289 297 298 297 297 303 307 313 307 306 313 308 312 308 311
221 220 223 224 228 231 232 235 236 240 239 235 245 249 254 257 251 245 246 248 252 255 263 266 275 275 275 278 289 295 307 313 318 315 312 313 313 312 308 313 314 318 317